Weather History for Superior, WI

Change the Weather History Date:

Friday, March 15, 2013

  Actual Average Record
Temperature  
Mean Temperature 26 °F -  
Max Temperature 33 °F 35 °F 57 °F (1968)
Min Temperature 18 °F 16 °F -13 °F (1956)
Degree Days  
Heating Degree Days 40    
Moisture  
Dew Point 19 °F    
Average Humidity 74    
Maximum Humidity 91    
Minimum Humidity 50    
Precipitation  
Precipitation 0.00 in - - ()
Sea Level Pressure  
Sea Level Pressure 29.99 in    
Wind  
Wind Speed 8 mph (ENE)    
Max Wind Speed 17 mph    
Max Gust Speed 23 mph    
Visibility 8 miles    
Events Snow    
Averages and records for this station are not official NWS values.
T = Trace of Precipitation, MM = Missing Value Source: NWS Daily Summary

Daily Weather History Graph

Daily Weather History Graph

Search for Another Location

Airport:

Trip Planner

Search our weather history database for the weather conditions in past years. The results will help you decide how hot, cold, wet, or windy it might be!

Date:

Astronomy

Mar. 15, 2013 Rise Set
Actual Time 7:20 AM CDT 7:14 PM CDT
Civil Twilight 6:50 AM CDT 7:44 PM CDT
Nautical Twilight 6:15 AM CDT 8:19 PM CDT
Astronomical Twilight 5:39 AM CDT 8:56 PM CDT
Moon 8:55 AM CDT (3/15) 11:46 PM CDT (3/15)
Length of Visible Light 12h 54m
Length of Day
11h 53m
Waxing Crescent, 15% of the Moon is Illuminated
Mar 15
Waxing Crescent
Mar 19
First Quarter
Mar 27
Full
Apr 2
Last Quarter
Apr 10
New

Hourly Weather History & Observations

Time (CDT) Temp. Windchill Dew Point Humidity Pressure Visibility Wind Dir Wind Speed Gust Speed Precip Events Conditions
12:15 AM 32.2 °F 28.9 °F 25.7 °F 77% 29.96 in 10.0 mi WSW 3.5 mph - N/A   Overcast
12:35 AM 32.2 °F 27.7 °F 25.7 °F 77% 29.96 in 10.0 mi WSW 4.6 mph - N/A   Overcast
1:15 AM 32.2 °F 28.9 °F 25.7 °F 77% 29.96 in 10.0 mi WSW 3.5 mph - N/A   Overcast
1:35 AM 32.4 °F 26.9 °F 25.7 °F 76% 29.95 in 10.0 mi WSW 5.8 mph - N/A   Overcast
1:55 AM 32.0 °F 27.5 °F 25.9 °F 78% 29.95 in 10.0 mi WSW 4.6 mph - N/A   Overcast
2:15 AM 32.0 °F - 26.1 °F 79% 29.96 in 10.0 mi Calm Calm - N/A   Overcast
2:35 AM 31.1 °F - 26.1 °F 82% 29.96 in 10.0 mi Calm Calm - N/A   Overcast
2:55 AM 31.8 °F - 25.7 °F 78% 29.96 in 10.0 mi Calm Calm - N/A   Overcast
3:15 AM 32.0 °F 28.7 °F 26.4 °F 80% 29.96 in 10.0 mi North 3.5 mph - N/A   Overcast
3:35 AM 33.3 °F 27.1 °F 27.9 °F 81% 29.96 in 10.0 mi NE 6.9 mph - N/A   Overcast
3:55 AM 33.6 °F 26.8 °F 27.3 °F 78% 29.95 in 10.0 mi NNE 8.1 mph - N/A   Overcast
4:15 AM 33.6 °F 27.5 °F 26.6 °F 75% 29.95 in 10.0 mi NNE 6.9 mph - N/A   Overcast
4:35 AM 33.3 °F 27.9 °F 26.4 °F 76% 29.95 in 10.0 mi NNE 5.8 mph - N/A   Overcast
4:55 AM 33.1 °F 28.7 °F 26.2 °F 76% 29.96 in 10.0 mi ENE 4.6 mph - N/A   Overcast
5:15 AM 32.9 °F 27.5 °F 26.2 °F 76% 29.97 in 10.0 mi NE 5.8 mph - N/A   Overcast
5:35 AM 32.0 °F 25.6 °F 25.7 °F 78% 29.98 in 10.0 mi NNE 6.9 mph - N/A   Overcast
5:55 AM 32.0 °F 27.5 °F 25.3 °F 76% 29.99 in 10.0 mi NE 4.6 mph - N/A   Overcast
6:15 AM 31.8 °F 26.2 °F 24.6 °F 75% 30.00 in 10.0 mi NE 5.8 mph - N/A   Overcast
6:35 AM 31.1 °F 25.4 °F 23.5 °F 74% 30.00 in 10.0 mi ENE 5.8 mph - N/A   Overcast
6:55 AM 30.9 °F 26.2 °F 23.7 °F 75% 30.00 in 10.0 mi ENE 4.6 mph - N/A   Overcast
7:15 AM 30.6 °F 23.8 °F 22.8 °F 73% 30.00 in 10.0 mi ENE 6.9 mph - N/A   Overcast
7:35 AM 30.2 °F 23.4 °F 22.3 °F 72% 30.00 in 10.0 mi ENE 6.9 mph - N/A   Overcast
7:55 AM 29.3 °F 20.2 °F 21.9 °F 74% 30.00 in 10.0 mi East 10.4 mph 17.3 mph N/A   Overcast
8:15 AM 28.8 °F 19.5 °F 19.8 °F 69% 30.00 in 10.0 mi ENE 10.4 mph - N/A   Overcast
8:35 AM 28.4 °F 18.5 °F 19.4 °F 69% 30.01 in 10.0 mi ENE 11.5 mph - N/A   Overcast
8:55 AM 28.0 °F 19.3 °F 19.0 °F 69% 30.02 in 10.0 mi ENE 9.2 mph - N/A   Overcast
9:15 AM 27.5 °F 18.6 °F 18.0 °F 67% 30.03 in 10.0 mi ENE 9.2 mph - N/A   Overcast
9:35 AM 27.1 °F 17.5 °F 16.7 °F 65% 30.03 in 10.0 mi ENE 10.4 mph 16.1 mph N/A   Overcast
10:55 AM 25.9 °F 14.8 °F 15.6 °F 65% 30.03 in 10.0 mi ENE 12.7 mph 20.7 mph N/A   Scattered Clouds
11:15 AM 26.6 °F 14.3 °F 14.2 °F 60% 30.03 in 10.0 mi East 16.1 mph 20.7 mph N/A   Mostly Cloudy
11:35 AM 26.6 °F 14.7 °F 14.9 °F 61% 30.02 in 10.0 mi East 15.0 mph 21.9 mph N/A   Overcast
11:55 AM 25.5 °F 14.3 °F 15.6 °F 66% 30.03 in 10.0 mi ENE 12.7 mph 19.6 mph N/A   Overcast
12:15 PM 24.6 °F 11.7 °F 15.8 °F 69% 30.04 in 10.0 mi East 16.1 mph 21.9 mph N/A   Overcast
12:35 PM 24.4 °F 12.4 °F 15.4 °F 69% 30.04 in 10.0 mi East 13.8 mph 19.6 mph N/A   Overcast
12:55 PM 24.6 °F 12.7 °F 13.1 °F 62% 30.04 in 10.0 mi East 13.8 mph 19.6 mph N/A   Overcast
1:15 PM 24.8 °F 11.5 °F 13.5 °F 62% 30.04 in 10.0 mi East 17.3 mph - N/A   Overcast
1:35 PM 25.3 °F 12.6 °F 14.0 °F 62% 30.02 in 10.0 mi East 16.1 mph 21.9 mph N/A   Mostly Cloudy
1:55 PM 24.8 °F 12.4 °F 13.1 °F 61% 30.01 in 10.0 mi East 15.0 mph 23.0 mph N/A   Mostly Cloudy
2:15 PM 24.6 °F 13.2 °F 11.7 °F 58% 30.01 in 10.0 mi East 12.7 mph - N/A   Overcast
2:35 PM 24.4 °F 13.0 °F 13.3 °F 63% 29.99 in 10.0 mi East 12.7 mph 18.4 mph N/A   Overcast
2:55 PM 24.6 °F 12.7 °F 14.4 °F 65% 29.99 in 10.0 mi East 13.8 mph 18.4 mph N/A   Overcast
3:15 PM 24.6 °F 12.2 °F 15.1 °F 67% 29.98 in 10.0 mi East 15.0 mph 19.6 mph N/A   Overcast
3:35 PM 24.3 °F 13.3 °F 14.9 °F 68% 29.98 in 10.0 mi East 11.5 mph 18.4 mph N/A   Overcast
3:55 PM 23.9 °F 13.5 °F 14.5 °F 67% 29.98 in 10.0 mi East 10.4 mph 16.1 mph N/A   Overcast
4:15 PM 23.9 °F 12.9 °F 14.7 °F 68% 29.99 in 10.0 mi East 11.5 mph - N/A   Overcast
4:35 PM 24.4 °F 13.0 °F 14.9 °F 67% 29.99 in 10.0 mi ENE 12.7 mph 17.3 mph N/A   Overcast
4:55 PM 24.1 °F 12.0 °F 14.7 °F 68% 29.98 in 10.0 mi East 13.8 mph 20.7 mph N/A   Overcast
5:15 PM 23.9 °F 12.3 °F 15.1 °F 69% 29.97 in 10.0 mi East 12.7 mph - N/A   Overcast
5:35 PM 23.9 °F 11.7 °F 15.4 °F 70% 29.96 in 10.0 mi East 13.8 mph 18.4 mph N/A   Overcast
5:55 PM 24.3 °F 11.2 °F 16.0 °F 71% 29.97 in 10.0 mi East 16.1 mph - N/A   Overcast
6:15 PM 23.9 °F 12.3 °F 16.0 °F 72% 29.98 in 10.0 mi East 12.7 mph 17.3 mph N/A   Overcast
6:35 PM 24.3 °F 12.7 °F 15.8 °F 70% 29.98 in 10.0 mi East 12.7 mph 17.3 mph N/A   Overcast
6:55 PM 23.9 °F 12.9 °F 14.0 °F 66% 29.99 in 10.0 mi ENE 11.5 mph - N/A   Overcast
7:15 PM 23.2 °F 14.1 °F 7.2 °F 50% 29.99 in 10.0 mi East 8.1 mph 16.1 mph N/A   Overcast
7:35 PM 21.7 °F 10.2 °F 13.3 °F 70% 29.99 in 5.0 mi ENE 11.5 mph 21.9 mph N/A   Haze
7:55 PM 20.8 °F 9.7 °F 17.2 °F 86% 29.99 in 2.5 mi East 10.4 mph 18.4 mph N/A Snow Light Snow
8:15 PM 20.3 °F 9.0 °F 18.0 °F 91% 29.99 in 1.0 mi East 10.4 mph 17.3 mph N/A Snow Snow
8:35 PM 19.4 °F 8.6 °F 17.1 °F 91% 29.99 in 1.8 mi East 9.2 mph - N/A Snow Light Snow
8:55 PM 19.2 °F 10.2 °F 16.7 °F 90% 29.99 in 2.0 mi East 6.9 mph - N/A Snow Light Snow
9:15 PM 19.0 °F 6.8 °F 16.2 °F 89% 29.99 in 2.5 mi East 11.5 mph - N/A Snow Light Snow
9:35 PM 18.9 °F 10.8 °F 16.3 °F 90% 30.00 in 1.5 mi East 5.8 mph - N/A Snow Light Snow
9:55 PM 18.9 °F 9.8 °F 16.5 °F 91% 30.00 in 1.8 mi East 6.9 mph - N/A Snow Light Snow
10:15 PM 18.9 °F 8.0 °F 16.3 °F 90% 29.99 in 1.8 mi East 9.2 mph - N/A Snow Light Snow
10:35 PM 18.5 °F 7.5 °F 15.8 °F 89% 30.00 in 1.5 mi East 9.2 mph - N/A Snow Light Snow
10:55 PM 18.5 °F 9.3 °F 15.8 °F 89% 30.00 in 1.5 mi East 6.9 mph - N/A Snow Light Snow
11:15 PM 18.5 °F 9.3 °F 15.8 °F 89% 30.00 in 1.5 mi East 6.9 mph - N/A Snow Light Snow
11:35 PM 18.5 °F 7.5 °F 15.6 °F 89% 30.00 in 2.5 mi East 9.2 mph - N/A Snow Light Snow
11:55 PM 18.3 °F 9.1 °F 15.4 °F 89% 30.00 in 3.0 mi East 6.9 mph - N/A Snow Light Snow